Regional Weather Roundup
Issued by NWS

Home | Current Version | Previous Version | Graphics & Text | Print | Product List | Glossary On
Versions: 1 2 3 4 5 6 7 8 9 10 11 12 13 14 15 16 17 18 19 20 21 22 23 24 25 26 27 28 29 30 31 32 33 34 35 36 37 38 39 40 41 42 43 44 45 46 47 48 49 50
000
ASUS43 KLSX 271707
RWRMO

WEATHER SUMMARY FOR MISSOURI
NATIONAL WEATHER SERVICE SPRINGFIELD MO
1200 PM CDT TUE SEP 27 2016

NOTE: "FAIR" INDICATES FEW OR NO CLOUDS BELOW 12,000 FEET WITH NO
       SIGNIFICANT WEATHER AND/OR OBSTRUCTIONS TO VISIBILITY.
       CURRENT SKY AND/OR WEATHER CONDITIONS ARE NOT AVAILABLE FOR
       CHILLICOTHE AND FARMINGTON.

MOZ001>031-035>038-043-044-053-054-271800-
...NORTHERN AND WESTERN MISSOURI...

CITY           SKY/WX    TMP DP  RH WIND       PRES   REMARKS
KANSAS CTY INT FAIR      69  52  54 CALM      30.02F
KANSAS C DTWN  FAIR      73  50  44 W6        30.01F
LEE`S SUMMIT   FAIR      71  49  45 W9        30.03F
ST JOSEPH      FAIR      71  48  43 VRB3      30.01F
CHILLICOTHE      N/A     73  51  46 VRB5      30.00F
KIRKSVILLE     FAIR      72  43  35 W13G22    29.98F

$$
MOZ066>068-077>081-088>096-101>105-271800-
...SOUTHWEST MISSOURI...

CITY           SKY/WX    TMP DP  RH WIND       PRES   REMARKS
SPRINGFIELD    FAIR      73  44  35 W7        30.08F
JOPLIN         FAIR      73  48  41 SW10      30.09F
BRANSON        SUNNY     68  45  42 W5        30.12F

$$
MOZ032>034-039>042-045>050-055>058-069>072-271800-
...CENTRAL MISSOURI...

CITY           SKY/WX    TMP DP  RH WIND       PRES   REMARKS
COLUMBIA       FAIR      74  50  42 SW10      30.01F
JEFFERSON CITY FAIR      74  47  38 W8G18     30.00F
ROLLA          FAIR      72  47  40 W14       30.03F
SEDALIA        FAIR      74  47  38 W10       30.03F
WHITEMAN AFB   SUNNY     72  49  44 W8        30.01F
OSAGE BEACH    FAIR      73  50  44 W10       30.04F

$$
MOZ051-052-059>065-271800-
...EAST CENTRAL MISSOURI...

CITY           SKY/WX    TMP DP  RH WIND       PRES   REMARKS
ST LOUIS INTL  FAIR      74  48  39 W8        29.99F
SPIRIT OF STL  FAIR      73  51  46 W12       29.98F
ST CHARLES     FAIR      72  49  44 W10       29.97F

$$
MOZ072>076-082>087-097>100-106>115-271800-
...SOUTH CENTRAL AND SOUTHEAST MISSOURI...

CITY           SKY/WX    TMP DP  RH WIND       PRES   REMARKS
CAPE GIRARDEAU FAIR      74  48  39 W9        30.03F
FARMINGTON     FAIR      72  49  44 W8G22     30.04F
POPLAR BLUFF   FAIR      75  48  38 NW6       30.04F
WEST PLAINS    FAIR      73  45  36 W8        30.09F

$$


USA.gov is the U.S. government's official web portal to all federal, state and local government web resources and services.